User: anonymous
Location: Caltech
(34.1382°N, 118.1253°W)
Time: 15:11:18
(UTC-07:00)
Language:

Cosmos 1508 Rocket - Orbit

View from above orbital plane
View from above orbital plane
View from above satellite
View from above satellite

Ground track
Ground track

The orbit data is extracted from the following two-line orbital elements,

1 14484U 83111B   14106.20602757  .00037548  00000-0  62075-3 0  4913
2 14484 082.8454 028.9098 0233274 135.1781 012.1296 15.27005095563084
Epoch (UTC): 16 April 2014 04:56:40
Eccentricity: 0.0233274
inclination: 82.8454°
perigee height: 324 km
apogee height: 645 km
right ascension of ascending node: 28.9098°
argument of perigee: 135.1781°
revolutions per day: 15.27005095
mean anomaly at epoch: 12.1296°
orbit number at epoch: 56308

The dashed part of the orbit path shows where the satellite is in the earth's shadow,  

DLR